Location: Newark
(59.4564°N, 26.6917°E)
Time: 01:59:13
(UTC+00:00)

SR - Visible Passes

Search period start: 28 February 2021 00:00
Search period end: 10 March 2021 00:00
Orbit: 573 x 882 km, 66.7° (Epoch: 27 February)

Date Brightness Start Highest point End Pass type
(mag) Time Alt. Az. Time Alt. Az. Time Alt. Az.
28 Feb ? 00:26:25 49° ENE 00:26:25 49° ENE 00:31:18 10° ESE visible
28 Feb ? 02:05:51 42° WNW 02:07:53 69° SW 02:13:47 10° SE visible
28 Feb ? 03:45:17 12° WNW 03:49:13 22° WSW 03:53:39 10° SSW visible
28 Feb ? 16:45:16 10° ESE 16:46:23 11° ESE 16:46:23 11° ESE visible
28 Feb ? 18:22:19 10° SSW 18:25:58 36° SSE 18:25:58 36° SSE visible
28 Feb ? 20:03:48 10° WSW 20:05:32 21° WSW 20:05:32 21° WSW visible
28 Feb?21:59:13ENE21:59:13ENE21:45:06Wvisible
28 Feb ? 23:38:40 24° ENE 23:38:40 24° ENE 23:41:06 10° E visible
01 Mar ? 01:18:09 86° ENE 01:18:09 86° ENE 01:24:04 10° SE visible
01 Mar ? 02:57:36 26° W 02:59:50 34° WSW 03:05:04 10° S visible
01 Mar ? 17:33:24 10° S 17:37:53 28° ESE 17:39:48 23° E visible
01 Mar ? 19:13:57 10° SW 19:19:21 86° SSE 19:19:21 86° SSE visible
01 Mar ? 20:56:37 10° W 20:58:54 24° W 20:58:54 24° W visible
01 Mar?22:51:22E22:51:22E22:38:26WNWvisible
02 Mar ? 00:30:52 33° ESE 00:30:52 33° ESE 00:34:07 10° ESE visible
02 Mar ? 02:10:23 50° SW 02:10:23 50° SW 02:15:59 10° SSE visible
02 Mar ? 03:49:53 14° W 03:51:16 15° WSW 03:54:22 10° SW visible
02 Mar ? 16:45:06 10° SSE 16:48:36 18° ESE 16:52:15 10° ENE visible
02 Mar ? 18:24:21 10° SSW 18:29:40 61° SE 18:32:44 27° ENE visible
02 Mar ? 20:06:30 10° WSW 20:11:58 57° NNW 20:12:14 57° NNW visible
02 Mar ? 21:49:38 10° WNW 21:51:44 22° WNW 21:51:44 22° WNW visible
02 Mar?23:44:08E23:44:08E23:31:15WNWvisible
03 Mar ? 01:23:41 30° SSE 01:23:41 30° SSE 01:26:32 10° SE visible
03 Mar ? 03:03:13 22° SW 03:03:13 22° SW 03:06:31 10° SSW visible
03 Mar ? 17:35:04 10° S 17:40:04 41° ESE 17:45:27 10° NE visible
03 Mar ? 19:16:29 10° WSW 19:21:59 73° NW 19:25:04 29° NE visible
03 Mar ? 20:59:28 10° W 21:04:32 43° NNW 21:04:32 43° NNW visible
03 Mar ? 22:42:29 10° WNW 22:44:00 18° NW 22:44:00 18° NW visible
04 Mar?00:37:26SE00:37:26SE00:23:28NWvisible
04 Mar ? 02:17:01 14° S 02:17:01 14° S 02:17:53 10° S visible
04 Mar ? 16:46:13 10° S 16:50:39 27° ESE 16:55:22 10° ENE visible
04 Mar ? 18:26:40 10° SW 18:32:07 84° SE 18:37:26 13° NE visible
04 Mar ? 20:09:17 10° W 20:14:44 49° NNW 20:16:53 34° NNE visible
04 Mar ? 21:52:26 10° WNW 21:56:19 35° NNW 21:56:19 35° NNW visible
04 Mar ? 23:35:03 10° NW 23:35:46 14° NW 23:35:46 14° NW visible
05 Mar?01:31:03SSE01:31:03SSE01:15:12NWvisible
05 Mar ? 17:37:05 10° SSW 17:42:25 59° SE 17:48:07 10° NE visible
05 Mar ? 19:19:11 10° WSW 19:24:40 59° NNW 19:28:54 19° NE visible
05 Mar ? 21:02:19 10° WNW 21:07:44 41° N 21:08:20 40° NNE visible
05 Mar ? 22:45:09 10° NW 22:47:45 26° NW 22:47:45 26° NW visible
06 Mar ? 16:47:50 10° S 16:52:49 39° ESE 16:58:10 10° NE visible
06 Mar ? 18:29:11 10° WSW 18:34:42 75° NW 18:40:37 10° NE visible
06 Mar ? 20:12:08 10° W 20:17:34 44° N 20:20:10 28° NE visible
06 Mar ? 21:55:10 10° WNW 21:59:34 40° NNW 21:59:34 40° NNW visible
06 Mar ? 23:37:37 10° NW 23:38:59 18° NW 23:38:59 18° NW visible
07 Mar ? 17:39:22 10° SW 17:44:51 81° SE 17:50:44 10° NE visible
07 Mar ? 19:21:58 10° W 19:27:26 49° NNW 19:31:51 17° NE visible
07 Mar ? 21:05:07 10° WNW 21:10:36 42° N 21:11:16 41° NNE visible
07 Mar ? 22:47:45 10° NW 22:50:40 30° NW 22:50:40 30° NW visible
08 Mar ? 00:30:03 10° NW 00:30:04 10° NW 00:30:04 10° NW visible
08 Mar ? 16:49:49 10° SSW 16:55:08 57° SE 17:00:51 10° NE visible
08 Mar ? 18:31:51 10° WSW 18:37:23 60° NNW 18:43:15 10° NE visible
08 Mar ? 20:15:00 10° WNW 20:20:26 42° N 20:22:53 28° NE visible
08 Mar ? 21:57:50 10° NW 22:02:17 44° NNW 22:02:17 44° NNW visible
08 Mar ? 23:40:11 10° NW 23:41:41 19° NW 23:41:41 19° NW visible
09 Mar ? 17:41:52 10° WSW 17:47:25 77° NW 17:53:21 10° NE visible
09 Mar ? 19:24:48 10° W 19:30:15 44° NNW 19:34:27 18° NE visible
09 Mar ? 21:07:51 10° WNW 21:13:28 45° NNE 21:13:51 44° NNE visible
09 Mar ? 22:50:20 10° NW 22:53:15 31° NW 22:53:15 31° NW visible
